Tracking 17265 objects as of 3-September-2015
HD Live streaming from Space Station

Track Soyuz TMA-18M
and Space Station

DELTA 1 DEB

Track DELTA 1 DEB now!
10-day predictions
DELTA 1 DEB is classified as:


NORAD ID: 15205
Int'l Code: 1984-088E
Perigee: 554.1 km
Apogee: 3,861.9 km
Inclination: 28.7 °
Period: 131.8 minutes
Semi major axis: 8579 km
RCS: 0.0578 m2 (small)
Launch date: August 16, 1984
Source: United States (US)

Note: This is SATELLITE DEBRIS
Your satellite tracking list
Your tracking list is empty





NASA's NSSDC Master Catalog

Two Line Element Set (TLE):
1 15205U 84088E   15245.28349552 +.00000361 +00000-0 +19285-3 0  9994
2 15205 028.7321 305.8756 1927799 330.0382 069.7106 10.92565972806295

Source of the keplerian elements: AFSPC

N2YO: 476